Flag for U.S.A. Weather past 2 weeks in Aspen, Colorado, U.S.A.

Now
43 °F

Rain. Fog.


Feels Like: 41 °F
Forecast: 40 / 53 °F
Wind: 3 mph from North

Location: Aspen-Pitkin County Airport

Current Time: May 5, 2015 at 8:23:56 PM

Latest Report: May 5, 2015 at 8:00 PM


Visibility: 6 mi

Pressure: 29.88 "Hg

Humidity: 89%

Dew point: 40 °F

Location of AspenLocation

Historic Weather in Aspen — Graph

°F

Aspen temperature yesterday

Maximum temperature yesterday: 60 °F (at 12:53 PM)
Minimum temperature yesterday: 38 °F (at 6:53 AM)
Average temperature yesterday: 47 °F

Past Weeks' High & Low Weather Summary

 TemperatureHumidityPressure
High69 °F (Apr 30, 3:53 PM)97% (Apr 25, 11:00 PM)30.17 "Hg (Apr 25, 11:00 PM)
Low29 °F (Apr 23, 5:53 AM)18% (Apr 30, 12:53 PM)29.56 "Hg (Apr 26, 4:53 AM)
Average45 °F60%29.84 "Hg
* Reported Apr 20 7:53 PM — May 5 7:00 PM, Aspen, Weather by CustomWeather, © 2015

Note: Actual official high and low records may vary slightly from our data, if they occured in-between our weather recording intervals... More about our weather records

Advertising

Aspen weather history for previous 24 hours

 ConditionsComfort  
Time TempWeatherWind HumidityBarometerVisibility
7:00 PM
Tue, May 5
44 °FLight rain. Mostly cloudy.No wind85%29.86 "Hg10 mi
5:53 PM45 °FLight rain. Cloudy.3 mph86%29.67 "Hg7 mi
4:56 PM46 °FThunderstorms. Fog.7 mph86%29.86 "Hg5 mi
3:53 PM55 °FPassing clouds.12 mph57%29.58 "Hg10 mi
2:53 PM54 °FLight rain. More clouds than sun.10 mph59%29.62 "Hg10 mi
1:53 PM57 °FMostly cloudy.7 mph51%29.59 "Hg9 mi
12:53 PM57 °FBroken clouds.10 mph44%29.61 "Hg10 mi
11:53 AM58 °FPartly sunny.7 mph46%29.62 "Hg10 mi
10:53 AM56 °FScattered clouds.6 mph53%29.65 "Hg10 mi
9:53 AM51 °FScattered clouds.7 mph63%29.69 "Hg10 mi
8:53 AM50 °FSunny.5 mph63%29.70 "Hg10 mi
7:53 AM45 °FScattered clouds.No wind74%29.72 "Hg10 mi
6:53 AM41 °FPassing clouds.No wind86%29.75 "Hg10 mi
5:53 AM39 °FMostly cloudy.3 mph89%29.75 "Hg10 mi
4:53 AM39 °FMostly cloudy.3 mph89%29.77 "Hg10 mi
3:53 AM38 °FClear.No wind90%29.80 "Hg10 mi
2:53 AM36 °FClear.No wind92%29.78 "Hg10 mi
1:53 AM39 °FClear.No wind82%29.77 "Hg10 mi
12:53 AM41 °FOvercast.6 mph82%29.77 "Hg10 mi
11:53 PM
Mon, May 4
39 °FPassing clouds.No wind86%29.82 "Hg10 mi
10:53 PM42 °FPassing clouds.5 mph79%29.81 "Hg10 mi
9:53 PM42 °FPassing clouds.3 mph85%29.85 "Hg10 mi
8:53 PM46 °FScattered clouds.No wind79%29.83 "Hg10 mi
Weather by CustomWeather, © 2015

See weather overviewHow to use our weather pages